COSMOS 2278

Last updated on Wed Mar 11 2026 00:02:18 GMT+0000 (Coordinated Universal Time)

1 23087U 94023A 26069.51711862 .00000083 00000+0 68105-4 0 9996 2 23087 71.0553 173.3664 0008087 11.6396 348.4912 14.14379178644923
UTC large
Height (km)
Speed (km/s)
/
Latitude / Longitude
Inclination (degrees)
Orbital Period (minutes)
Azimuth
Elevation
Range (km)
Doppler Factor

Next 0 passes for location: London (51.5072 / 0.1276)

Sorry there are no passes over London.